Temp
60 60 61 61 61 61 61 61 61 61 61 61 61 61 61 61 61 55 48 58 60 65 62 54 55 53 51 51 52 49 39 35 39 43 45 53 51 56 57 54 56 57 56 59 62
60 60 60 60 60 60 61 60 60 60 61 61 61 61 61 61 52 49 61 65 65 64 52 50 49 51 46 47 49 45 38 40 47 47 46 52 53 52 54 54 53 53 57 59 63
59 59 59 60 60 60 60 60 60 60 60 60 61 61 61 56 47 48 64 65 65 60 54 51 51 50 44 45 45 47 39 44 47 50 51 52 52 54 51 51 52 52 54 55 62
58 58 59 59 59 60 60 60 60 60 60 60 61 61 60 51 37 52 63 63 63 57 53 50 48 43 40 39 44 39 45 45 48 50 50 51 54 52 54 52 57 56 57 56 58
58 58 58 58 59 60 60 60 60 60 60 60 61 61 53 44 44 58 61 59 57 54 48 46 43 41 38 39 42 41 42 46 48 48 49 54 51 49 52 58 59 58 57 55 56
58 58 58 58 59 59 60 60 60 60 60 61 61 60 49 38 56 57 55 55 53 51 48 47 42 44 39 40 39 41 42 43 46 46 48 47 49 52 53 57 58 57 55 55 56
57 57 57 58 58 59 59 59 60 59 60 61 61 55 46 43 55 54 55 52 52 50 47 48 47 44 41 38 43 41 38 40 42 44 45 46 44 46 49 54 55 56 55 54 57
57 57 57 58 58 58 59 59 59 59 60 61 60 50 41 56 54 55 54 52 53 53 50 50 49 44 42 43 41 37 36 31 39 43 45 45 35 47 51 50 51 54 54 54 56
56 56 57 57 58 58 59 59 59 60 61 60 51 46 40 58 51 53 52 49 50 51 50 56 48 41 41 34 32 33 28 30 35 43 41 41 35 47 48 47 48 51 53 55 55
56 56 57 57 57 58 58 59 59 57 55 56 53 43 47 45 49 52 53 52 47 47 47 44 39 35 34 33 23 28 27 30 28 38 40 38 37 40 43 42 40 44 46 48 50
56 56 57 57 58 57 51 47 43 43 45 40 41 41 45 50 51 51 51 49 47 43 34 39 34 30 31 34 33 31 28 26 31 39 36 35 35 37 40 40 38 39 41 43 46
56 56 56 57 57 56 47 40 39 42 38 45 45 45 48 47 42 48 51 42 40 33 37 34 30 36 39 37 34 33 29 27 33 38 36 33 35 37 39 38 38 38 38 40 42
56 56 56 57 56 49 43 42 48 44 36 41 44 43 45 47 41 43 46 41 36 33 32 30 35 40 38 34 33 32 29 28 29 34 34 31 30 34 37 39 40 40 39 40 40
56 56 56 56 49 43 41 47 47 46 24 35 40 44 46 45 40 48 47 41 37 32 32 32 39 37 35 34 33 31 34 33 32 28 24 30 19 29 34 34 37 37 37 37 38
55 55 56 54 43 41 44 46 46 43 19 37 39 50 46 41 42 44 46 42 33 33 33 31 33 33 33 33 35 32 35 32 32 29 26 28 20 25 30 30 33 35 36 37 38
55 55 55 47 43 43 46 44 43 28 20 28 37 36 38 40 41 43 41 43 39 34 34 32 37 35 34 36 36 37 33 32 30 26 12 27 22 21 29 32 32 35 36 38 38
55 54 50 48 40 45 44 40 27 23 29 28 30 35 34 33 36 37 34 33 27 21 18 29 32 36 37 32 35 32 23 10 13 11 12 27 23 26 31 31 32 32 36 36 37
54 52 48 46 44 43 40 32 23 16 18 33 32 34 30 33 34 34 32 26 31 23 17 14 20 32 36 33 32 30 28 14 10 12 15 28 22 26 34 34 35 35 36 37 37
53 42 41 43 44 41 36 21 25 22 31 32 32 23 25 32 31 31 29 26 28 28 16 22 17 33 35 34 36 28 22 33 20 20 18 21 25 33 33 32 35 34 36 37 37
41 40 40 43 43 38 28 29 22 33 34 33 23 26 18 28 28 29 28 32 32 34 32 26 20 26 33 34 34 31 35 19 18 9 9 17 20 23 29 31 33 34 35 36 37
42 35 41 43 41 33 25 20 29 35 36 29 20 26 28 26 26 26 28 32 34 31 33 34 27 22 28 30 30 31 22 30 30 26 16 14 18 29 31 32 32 34 35 35 36
41 33 43 42 28 15 21 27 37 35 35 33 31 31 30 30 28 28 29 31 35 35 29 35 29 21 18 28 37 34 29 29 17 15 20 20 19 34 34 34 35 34 35 34 34
34 36 43 42 25 22 26 33 35 34 34 33 33 33 33 30 24 29 31 35 36 34 31 32 20 13 18 25 33 29 33 34 29 29 15 16 17 32 33 34 35 33 35 31 32
37 32 36 35 34 32 28 29 30 36 35 35 34 35 32 26 31 27 31 34 36 34 41 36 21 17 18 23 26 25 27 32 30 16 16 19 16 20 21 31 28 28 29 27 28
36 33 33 29 29 33 35 33 33 30 34 35 32 33 32 21 21 24 30 32 34 39 33 31 15 18 22 25 26 28 28 29 28 28 22 18 20 21 25 27 26 32 29 26 28
33 33 34 30 33 33 35 30 34 33 33 32 31 33 32 30 31 25 30 31 29 31 29 31 17 17 13 23 30 27 31 32 30 30 29 27 28 29 31 29 32 28 24 25 26
39 40 40 34 33 32 31 34 34 36 35 36 34 32 31 33 35 31 33 32 33 30 29 27 19 10 8 14 12 17 22 28 31 27 26 21 28 29 28 31 30 30 29 27 29
MSLP
1023.24 1023.14 1023.12 1022.91 1022.63 1022.35 1022.12 1021.72 1021.48 1021.20 1020.95 1020.80 1020.55 1020.21 1020.08 1019.93 1019.67 1019.56 1019.30 1019.85 1019.08 1018.34 1017.78 1017.70 1017.19 1017.25 1017.03 1017.28 1017.30 1017.33 1017.89 1018.10 1017.16 1016.41 1015.61 1014.90 1014.66 1013.70 1013.39 1013.38 1013.38 1013.59 1013.86 1013.72 1014.20
1023.55 1023.40 1023.35 1023.19 1022.86 1022.59 1022.36 1022.05 1021.78 1021.47 1021.17 1020.90 1020.70 1020.25 1020.09 1020.03 1020.37 1020.19 1020.39 1019.55 1018.86 1018.42 1018.08 1018.25 1018.05 1017.72 1017.83 1017.81 1017.86 1018.11 1018.61 1018.13 1017.58 1016.82 1016.43 1015.62 1015.11 1014.65 1013.98 1013.84 1014.23 1014.33 1014.58 1014.49 1014.51
1023.86 1023.49 1023.46 1023.41 1023.07 1022.80 1022.49 1022.23 1021.95 1021.63 1021.25 1021.01 1020.82 1020.20 1020.13 1020.09 1020.61 1020.81 1020.26 1019.73 1019.12 1018.67 1018.57 1018.51 1018.33 1018.35 1018.57 1018.40 1018.66 1018.56 1018.77 1018.53 1018.12 1017.44 1016.66 1015.94 1015.51 1015.09 1014.82 1014.76 1015.06 1015.20 1015.24 1015.23 1015.23
1024.08 1023.70 1023.55 1023.47 1023.20 1022.95 1022.52 1022.29 1022.02 1021.69 1021.38 1021.15 1020.70 1020.20 1020.05 1020.13 1021.41 1020.88 1020.44 1019.80 1019.37 1019.05 1018.99 1018.83 1018.63 1019.15 1019.61 1019.68 1019.36 1019.05 1018.97 1018.77 1018.39 1017.96 1017.31 1016.63 1016.03 1015.77 1015.53 1015.95 1015.39 1014.93 1015.33 1015.54 1015.63
1024.28 1023.82 1023.77 1023.54 1023.38 1023.03 1022.61 1022.33 1022.02 1021.75 1021.55 1021.20 1020.67 1020.16 1020.12 1020.99 1021.47 1020.75 1020.53 1019.84 1019.58 1019.66 1019.73 1019.91 1019.83 1020.13 1020.29 1020.32 1019.67 1019.63 1019.62 1019.10 1018.62 1018.04 1017.64 1016.90 1016.63 1016.29 1016.18 1015.89 1015.41 1015.44 1015.84 1016.25 1016.35
1024.39 1024.01 1023.99 1023.64 1023.38 1023.10 1022.74 1022.36 1022.09 1021.79 1021.63 1021.19 1020.73 1020.46 1020.58 1021.80 1021.39 1020.99 1020.53 1020.02 1020.21 1020.38 1020.43 1020.42 1020.68 1020.57 1020.74 1020.65 1020.32 1020.38 1020.02 1019.59 1019.05 1018.46 1018.15 1017.71 1017.15 1016.67 1016.88 1016.42 1016.02 1016.24 1016.63 1016.93 1016.81
1024.48 1024.21 1024.14 1023.84 1023.44 1023.10 1022.73 1022.41 1022.32 1022.07 1021.80 1021.37 1021.13 1021.09 1021.55 1022.12 1021.39 1021.15 1020.65 1020.15 1020.31 1020.58 1020.68 1020.64 1020.73 1020.53 1020.92 1020.76 1020.74 1020.55 1020.42 1019.92 1019.73 1019.00 1018.67 1018.23 1018.10 1018.08 1018.11 1017.22 1017.11 1017.04 1017.13 1017.16 1016.93
1024.59 1024.38 1024.24 1023.90 1023.52 1023.05 1022.53 1022.35 1022.41 1022.18 1021.98 1021.56 1021.38 1021.35 1022.10 1021.79 1021.43 1021.23 1020.73 1020.22 1020.31 1020.35 1020.51 1020.39 1020.52 1020.67 1021.11 1020.93 1021.00 1021.12 1021.08 1020.96 1020.71 1019.93 1019.33 1018.84 1019.35 1019.03 1018.69 1018.24 1018.03 1017.83 1017.53 1017.29 1017.24
1024.68 1024.50 1024.33 1023.85 1023.53 1023.03 1022.46 1022.12 1022.26 1022.02 1021.96 1021.73 1021.80 1022.02 1022.81 1021.85 1021.84 1021.63 1021.42 1021.39 1020.86 1020.55 1020.54 1020.39 1020.44 1021.39 1021.39 1021.78 1022.09 1022.43 1022.51 1022.36 1021.59 1020.97 1020.75 1020.00 1020.34 1020.16 1019.74 1019.13 1018.97 1018.75 1018.55 1018.32 1018.27
1024.63 1024.53 1024.41 1023.98 1023.47 1022.93 1022.57 1022.25 1022.01 1021.91 1021.90 1021.85 1022.29 1022.98 1023.26 1023.55 1022.87 1022.23 1021.62 1021.60 1021.38 1021.03 1020.93 1021.24 1021.74 1022.39 1022.69 1022.60 1023.85 1024.07 1023.75 1023.14 1022.63 1022.08 1021.48 1021.35 1021.70 1021.73 1021.08 1020.33 1020.62 1020.47 1020.31 1020.12 1019.90
1024.71 1024.58 1024.34 1023.97 1023.69 1023.11 1022.90 1022.82 1023.21 1023.16 1023.24 1023.97 1024.23 1023.85 1023.82 1023.60 1023.03 1022.43 1021.95 1021.83 1021.95 1022.14 1022.89 1022.75 1023.25 1023.89 1023.86 1023.91 1023.85 1023.85 1023.99 1023.75 1023.03 1022.46 1022.33 1022.61 1022.59 1022.71 1022.70 1021.93 1022.17 1022.28 1022.02 1021.70 1021.30
1024.79 1024.84 1024.48 1024.21 1023.95 1023.50 1023.57 1024.87 1025.91 1026.16 1025.31 1024.68 1024.51 1024.21 1024.02 1023.88 1023.68 1022.92 1022.46 1022.67 1023.43 1024.01 1023.79 1023.87 1024.31 1024.39 1023.92 1023.89 1023.94 1024.02 1024.08 1024.13 1023.49 1022.93 1022.83 1023.19 1023.23 1023.33 1023.37 1023.77 1023.86 1023.84 1023.49 1023.08 1022.24
1025.03 1025.08 1024.73 1024.46 1024.14 1024.49 1025.03 1025.50 1025.58 1025.71 1025.91 1025.29 1024.87 1024.51 1024.20 1024.12 1024.24 1023.99 1023.57 1023.79 1024.50 1024.83 1025.04 1025.02 1025.02 1024.27 1024.05 1024.30 1024.33 1024.49 1024.47 1024.55 1024.57 1023.72 1023.48 1023.56 1023.67 1023.73 1023.85 1024.14 1024.38 1024.51 1024.72 1024.26 1023.64
1025.12 1025.16 1024.84 1024.47 1024.68 1025.45 1026.01 1025.93 1025.50 1025.37 1026.24 1026.25 1025.17 1024.72 1024.59 1024.42 1024.53 1024.36 1024.41 1024.59 1025.05 1025.82 1025.49 1025.71 1025.30 1024.82 1024.47 1024.63 1024.77 1024.61 1024.54 1024.73 1024.75 1024.75 1024.55 1024.40 1024.75 1024.41 1024.53 1024.49 1024.69 1024.95 1024.95 1024.84 1024.27
1025.01 1025.19 1025.24 1024.85 1025.65 1025.92 1026.39 1026.07 1025.75 1025.63 1026.85 1026.77 1025.51 1024.65 1024.74 1025.25 1025.41 1024.79 1024.93 1024.63 1025.78 1026.41 1026.51 1026.29 1025.81 1025.35 1025.03 1025.22 1025.13 1025.08 1024.91 1025.03 1025.13 1025.39 1025.55 1025.40 1025.49 1025.30 1025.26 1025.15 1025.24 1025.50 1025.57 1025.40 1025.00
1024.86 1024.91 1025.21 1025.72 1026.12 1026.55 1026.18 1026.01 1026.16 1026.76 1027.84 1027.38 1026.78 1026.10 1025.80 1025.83 1025.83 1025.47 1025.38 1025.59 1026.35 1026.81 1026.94 1026.83 1026.06 1025.96 1025.52 1025.21 1025.24 1025.40 1025.34 1025.70 1026.13 1026.31 1026.62 1026.47 1026.39 1026.23 1026.33 1026.58 1026.28 1026.21 1026.05 1025.67 1025.24
1025.33 1025.22 1025.15 1026.00 1026.86 1026.54 1026.58 1026.57 1027.83 1027.81 1029.10 1028.69 1027.99 1027.60 1027.58 1027.35 1026.68 1026.74 1026.86 1027.24 1028.19 1028.31 1029.24 1028.13 1026.81 1026.25 1025.89 1025.64 1025.53 1025.95 1026.51 1027.07 1027.67 1027.66 1027.78 1026.86 1026.62 1026.55 1026.63 1026.80 1026.92 1026.53 1026.11 1025.99 1025.65
1025.37 1025.56 1026.11 1026.29 1026.47 1026.48 1026.90 1027.49 1028.72 1029.32 1028.83 1028.56 1028.46 1028.59 1028.71 1028.41 1027.97 1027.67 1027.87 1028.28 1028.70 1029.40 1030.30 1030.16 1028.08 1027.41 1026.82 1026.82 1026.79 1026.98 1027.37 1028.01 1028.74 1028.98 1028.21 1027.11 1026.99 1026.53 1026.56 1026.81 1026.77 1026.69 1026.45 1026.16 1025.79
1025.70 1026.27 1026.46 1026.87 1026.45 1026.70 1027.57 1028.93 1029.08 1029.04 1028.84 1028.78 1029.05 1029.13 1029.17 1028.91 1028.69 1028.39 1028.44 1029.05 1029.37 1029.41 1030.40 1030.51 1029.29 1028.19 1027.46 1027.21 1027.24 1027.32 1027.70 1028.03 1028.63 1029.41 1028.95 1027.72 1027.18 1026.89 1026.62 1026.71 1026.49 1026.36 1026.12 1025.99 1025.87
1025.98 1026.88 1027.16 1027.09 1026.87 1026.91 1028.45 1029.60 1029.56 1029.21 1028.62 1028.70 1029.33 1029.81 1029.88 1029.48 1029.32 1028.93 1028.77 1028.63 1029.03 1029.38 1029.74 1030.64 1030.27 1029.18 1028.08 1027.49 1027.43 1027.57 1027.89 1028.01 1028.71 1029.49 1029.13 1028.12 1027.57 1026.94 1026.84 1026.87 1026.85 1026.68 1026.59 1026.48 1026.34
1025.77 1026.91 1027.17 1027.09 1027.29 1028.09 1029.13 1029.45 1029.36 1029.01 1028.71 1028.64 1029.21 1029.53 1029.53 1029.52 1029.53 1029.22 1029.10 1028.64 1028.18 1029.20 1029.48 1030.16 1030.71 1030.11 1029.29 1028.66 1028.17 1028.01 1027.93 1028.06 1028.52 1029.09 1029.59 1029.36 1027.82 1027.12 1027.26 1027.36 1027.30 1027.27 1027.34 1027.24 1026.90
1025.87 1027.08 1027.25 1027.22 1028.31 1029.51 1029.74 1028.92 1028.67 1028.60 1028.46 1028.64 1028.82 1028.98 1029.13 1029.29 1029.44 1029.25 1028.78 1028.38 1028.11 1028.51 1029.37 1030.06 1030.54 1031.07 1030.29 1029.31 1028.58 1028.42 1028.41 1028.57 1029.13 1029.64 1029.77 1029.82 1028.13 1027.45 1027.59 1027.70 1027.69 1027.63 1027.69 1027.73 1027.48
1025.90 1026.99 1027.34 1027.13 1028.98 1029.56 1029.52 1028.96 1028.44 1028.45 1028.25 1028.34 1028.42 1028.62 1028.84 1029.13 1029.45 1029.23 1028.89 1028.29 1028.06 1028.38 1028.99 1029.95 1030.84 1031.48 1030.54 1030.13 1029.14 1028.82 1028.52 1028.56 1029.10 1029.55 1029.92 1030.18 1028.34 1027.80 1027.84 1027.90 1027.84 1027.90 1027.89 1027.88 1027.55
1025.84 1026.88 1027.71 1027.85 1028.09 1028.50 1028.85 1028.45 1028.19 1027.81 1027.57 1027.94 1028.07 1028.31 1028.96 1029.57 1029.53 1029.50 1029.28 1028.77 1028.59 1028.59 1028.96 1029.75 1031.35 1031.99 1031.73 1030.45 1029.83 1029.43 1028.88 1028.57 1028.95 1029.56 1029.68 1029.23 1028.54 1028.19 1028.17 1028.06 1027.94 1028.13 1028.20 1028.29 1027.94
1025.67 1026.22 1026.39 1027.45 1027.76 1027.58 1027.62 1027.50 1027.73 1027.56 1027.61 1027.73 1028.25 1028.16 1028.56 1029.64 1029.69 1030.00 1029.83 1029.60 1029.07 1029.27 1029.57 1030.26 1031.82 1032.57 1031.56 1030.76 1030.20 1029.22 1028.66 1028.33 1028.35 1028.59 1028.89 1028.42 1028.70 1028.08 1028.04 1027.89 1027.83 1028.19 1028.34 1028.36 1028.17
1024.83 1025.57 1026.22 1026.73 1026.67 1026.95 1027.03 1027.14 1026.80 1026.97 1026.99 1027.50 1027.63 1027.60 1028.21 1028.51 1028.34 1028.84 1029.66 1029.89 1029.53 1030.01 1030.23 1030.78 1031.93 1032.71 1032.09 1031.05 1030.07 1029.08 1028.14 1027.50 1027.61 1027.83 1027.82 1027.74 1027.30 1026.81 1026.92 1027.19 1027.58 1027.87 1028.04 1028.33 1028.46
1023.81 1024.40 1024.08 1026.24 1026.43 1026.75 1025.77 1025.91 1025.95 1026.19 1026.42 1026.56 1026.74 1027.38 1027.97 1027.91 1028.38 1028.77 1029.22 1029.89 1029.86 1030.34 1030.75 1031.35 1032.50 1033.43 1032.85 1031.76 1030.40 1028.85 1026.66 1026.42 1026.24 1026.28 1026.53 1026.91 1026.41 1026.47 1026.57 1026.56 1026.82 1027.05 1027.50 1027.90 1028.24
Wind_Speed
12 12 12 12 13 14 14 14 13 13 13 13 12 12 13 13 9 11 11 13 12 19 16 9 5 7 3 4 5 1 4 2 2 1 2 5 6 5 3 2 3 4 2 1 15
11 11 12 12 13 14 13 13 13 13 12 13 13 13 13 10 4 9 14 20 18 20 8 7 7 7 4 3 3 5 2 5 4 3 3 7 5 6 5 4 4 3 6 7 16
10 11 12 13 14 14 13 12 12 12 12 13 14 13 11 4 4 6 18 22 19 15 5 2 2 3 5 3 5 3 2 4 5 7 6 5 7 5 7 5 3 5 4 4 14
9 11 11 12 14 14 13 14 13 12 13 13 13 13 5 3 4 5 18 20 16 10 8 7 6 5 4 4 5 2 4 3 5 8 7 6 7 4 6 4 9 7 6 4 8
9 11 11 12 14 14 14 14 13 12 12 12 13 7 4 8 2 6 16 13 7 8 8 6 7 4 4 3 3 4 5 6 7 7 5 5 5 2 5 6 7 7 8 6 5
9 11 12 12 14 14 14 13 12 12 10 12 14 5 6 8 6 7 8 7 7 6 7 7 3 2 2 3 3 4 4 8 6 6 5 3 2 3 6 8 10 8 5 4 4
9 11 12 14 15 15 15 13 11 10 10 10 10 3 9 1 4 8 7 3 2 2 4 2 2 4 1 2 3 2 4 3 9 9 4 3 4 5 7 7 7 7 4 3 1
10 12 13 14 15 16 15 12 10 9 10 9 6 4 4 5 7 7 8 6 4 2 1 3 1 2 2 4 4 5 4 4 4 13 7 5 3 3 9 8 7 7 6 6 4
9 11 13 14 15 18 14 7 6 9 7 8 6 5 4 8 8 8 5 6 6 5 2 1 4 3 7 4 5 8 3 5 7 6 5 7 2 9 12 7 7 7 7 7 9
8 10 12 14 14 16 8 4 5 5 5 1 2 5 6 8 7 8 6 5 4 6 4 9 6 5 6 9 3 4 5 4 3 7 6 6 8 12 17 10 10 11 13 13 12
7 9 11 13 15 14 6 5 7 7 11 4 3 4 3 8 4 7 5 6 5 8 6 6 9 6 5 4 2 2 1 3 4 2 6 7 8 10 13 19 17 15 15 15 14
7 10 11 13 10 11 5 7 2 2 5 3 2 2 2 1 4 10 7 7 8 6 6 7 7 7 4 4 3 3 2 5 5 4 3 6 5 7 10 10 12 13 14 15 17
7 10 12 14 4 6 5 4 2 1 3 3 2 2 4 4 3 8 7 3 6 7 7 5 3 6 4 6 6 3 3 3 3 6 3 3 3 4 3 7 9 12 9 11 14
6 10 13 13 6 2 4 6 2 2 7 7 6 4 4 2 4 2 4 2 7 3 3 2 5 5 6 3 4 2 1 3 5 4 2 3 2 3 5 5 13 14 14 14 15
4 8 10 11 3 4 2 5 2 3 5 3 7 4 7 4 4 8 4 6 4 4 3 4 6 6 5 3 3 5 6 3 2 2 3 6 5 2 6 9 17 15 14 13 13
5 7 6 4 3 2 4 3 3 10 6 6 5 7 5 6 7 6 6 8 2 3 4 2 3 2 2 4 1 6 2 5 4 2 5 4 3 4 5 7 10 11 12 15 15
4 9 7 2 1 5 4 4 7 7 2 7 3 5 3 6 5 7 5 10 5 6 8 8 4 5 4 4 5 8 6 4 6 7 5 2 3 2 2 2 5 12 14 13 13
7 6 5 2 2 3 4 7 5 2 5 1 2 3 4 6 5 7 3 4 5 6 4 3 7 6 8 3 4 4 3 4 3 3 5 4 2 3 2 3 6 6 8 11 16
7 3 2 4 4 3 6 5 8 7 4 5 3 6 4 3 2 4 4 1 1 2 6 4 6 5 3 2 2 7 5 3 4 3 2 3 2 3 3 4 11 13 14 17 18
4 2 3 6 3 5 7 5 2 4 4 3 4 3 2 3 2 3 3 1 2 3 3 2 6 2 5 2 2 3 4 4 4 4 4 4 4 3 8 12 11 13 15 15 15
4 4 2 3 3 6 4 7 4 4 1 4 5 4 3 2 1 1 2 2 1 2 4 1 2 7 3 4 2 5 5 3 1 1 1 4 5 2 5 6 9 10 10 12 13
3 1 2 1 4 1 2 6 4 4 2 2 4 3 5 5 3 2 3 3 1 5 2 2 1 5 8 5 1 2 2 1 4 6 1 2 6 2 4 4 5 8 10 9 8
4 2 1 3 3 2 3 1 3 3 3 4 4 3 2 5 1 3 3 1 3 3 4 4 2 4 8 6 3 1 2 1 2 1 4 2 7 3 2 4 5 8 9 7 9
3 3 2 3 1 4 4 3 3 3 4 3 4 4 3 2 2 3 2 1 2 2 6 5 2 6 6 6 2 3 3 4 2 2 3 7 6 4 5 6 5 5 7 7 7
2 3 2 4 4 4 4 7 4 5 2 3 1 4 5 3 2 3 2 2 3 5 2 4 3 2 7 8 3 7 9 9 11 8 6 5 5 6 6 8 6 6 6 7 7
7 5 1 2 3 7 5 6 9 4 8 5 6 7 7 7 8 7 6 4 4 2 2 2 3 1 6 5 4 11 13 11 12 13 10 8 16 6 6 2 7 7 4 6 6
3 1 3 4 4 4 6 6 8 7 6 3 8 6 7 8 6 2 4 2 3 6 4 3 3 4 7 3 6 7 10 14 8 4 7 6 8 4 4 8 8 6 4 6 5
Wind_Direction
35 29 19 16 14 12 9 12 10 9 4 357 347 354 351 352 2 21 36 346 346 341 343 318 9 356 20 30 4 95 64 188 256 229 7 354 5 325 269 206 25 14 20 309 136
32 27 17 11 8 3 2 3 360 359 356 348 339 355 349 351 24 31 355 357 360 352 4 4 350 349 44 21 25 72 105 217 6 6 355 315 20 318 7 28 6 7 20 99 143
26 27 15 6 3 358 359 357 351 348 347 343 336 353 355 66 57 336 344 351 356 359 319 265 290 359 48 354 354 26 158 337 358 346 332 336 8 328 348 28 27 289 155 147 156
20 20 12 3 359 354 356 351 348 346 343 336 341 351 23 70 70 287 337 347 352 356 8 7 24 40 62 29 334 53 33 61 310 332 345 345 317 14 52 321 303 283 156 128 155
13 15 3 359 353 351 352 350 350 349 339 341 347 355 67 44 42 290 331 343 3 3 29 13 43 11 69 318 356 46 334 328 316 302 296 310 1 354 2 359 22 56 65 94 88
7 10 357 354 351 348 349 351 354 352 338 346 354 5 65 64 266 314 325 350 21 14 6 25 50 19 59 345 44 312 307 309 328 309 333 304 343 24 23 343 22 51 57 84 105
1 3 356 350 349 346 342 346 344 340 335 347 359 53 61 65 322 315 336 309 11 13 7 4 338 68 315 6 342 315 12 34 9 332 26 296 39 69 328 13 33 20 25 337 22
359 360 352 349 347 344 336 334 330 325 323 339 358 59 86 299 308 334 332 353 4 33 275 280 294 79 28 317 15 38 38 34 9 15 329 45 290 32 354 3 15 32 10 355 333
0 355 348 349 348 343 338 350 339 322 326 341 25 60 357 323 357 320 352 320 317 348 29 324 64 71 9 30 30 14 52 8 336 42 330 39 330 358 340 335 346 6 11 7 1
1 353 348 348 347 348 341 9 334 12 341 44 84 48 6 312 308 324 317 341 355 332 19 32 44 60 20 33 64 338 359 335 337 327 13 17 21 20 15 41 25 27 29 29 28
358 351 349 348 346 355 11 14 16 355 37 86 253 137 298 300 280 328 339 342 9 47 35 1 56 33 350 15 135 150 114 320 281 309 29 22 71 36 31 45 38 31 23 14 8
358 344 350 343 350 17 64 75 47 286 64 25 325 345 260 359 333 334 6 60 36 37 344 27 44 327 335 5 21 25 54 341 291 298 34 18 90 95 58 54 48 30 17 7 354
359 346 350 339 18 35 67 85 328 73 84 335 334 325 305 17 4 315 20 41 41 33 17 75 313 317 46 22 22 9 82 337 275 328 64 15 73 46 106 75 43 38 20 7 360
9 355 352 336 47 323 34 328 357 124 74 307 346 360 349 348 11 324 3 68 41 26 25 35 321 13 35 41 11 338 346 282 291 13 148 29 216 25 343 2 18 15 11 360 351
32 6 5 37 145 58 290 313 321 43 36 306 315 306 319 58 321 350 351 29 69 354 41 274 348 358 29 354 341 279 334 318 318 88 46 360 72 264 11 340 356 358 359 355 350
79 37 19 16 45 316 306 346 34 45 272 339 322 352 14 6 351 328 31 33 61 55 4 352 283 323 307 302 289 301 347 31 37 56 47 300 103 344 8 334 332 342 351 353 351
82 63 81 78 13 323 342 46 30 119 330 311 345 11 14 343 357 15 35 35 34 38 5 337 336 320 16 5 9 15 37 352 1 13 203 316 48 271 10 338 328 331 346 356 356
98 70 36 88 324 13 48 47 72 256 234 237 34 32 40 350 1 355 25 44 38 66 66 40 338 2 336 66 334 330 15 134 198 343 286 308 286 181 109 51 316 340 347 356 0
107 14 56 348 359 62 68 49 207 198 181 150 55 73 324 322 329 31 30 41 173 117 120 4 292 312 37 355 58 316 29 291 110 17 312 271 261 240 270 347 357 355 359 1 357
95 42 12 328 12 69 76 240 194 227 140 99 135 134 192 314 355 14 344 276 74 35 120 229 311 269 304 351 27 122 295 17 4 23 321 302 277 251 336 340 343 355 360 351 345
73 65 266 340 50 43 157 212 221 231 239 119 176 149 206 198 198 295 251 276 83 102 115 113 109 290 22 25 26 353 355 347 355 144 247 308 272 234 299 333 324 339 342 335 334
116 72 304 47 57 10 164 181 180 168 183 119 123 137 172 168 200 229 231 210 122 143 115 87 120 276 231 254 328 289 281 296 114 292 266 176 274 143 280 304 303 318 327 319 305
120 121 317 98 154 261 309 257 201 150 186 163 167 171 168 174 99 225 249 271 104 129 167 169 338 347 348 359 21 241 251 257 96 202 232 169 263 198 202 275 278 306 325 314 324
111 126 7 37 138 146 154 220 205 226 166 174 143 129 117 48 5 231 252 287 324 106 115 106 156 170 197 207 139 293 265 239 184 161 229 239 294 294 275 251 276 297 313 316 317
107 228 196 183 242 176 167 152 166 191 232 178 218 204 159 147 30 245 256 268 20 151 81 104 213 214 261 254 220 254 254 255 234 231 197 245 239 239 229 226 245 292 296 325 329
140 156 143 123 110 126 180 215 189 178 155 222 205 186 179 173 179 198 169 214 198 226 135 81 274 114 297 314 246 274 261 253 240 241 256 260 283 207 216 174 265 265 281 306 313
134 348 118 147 148 161 201 191 206 149 219 207 182 138 196 214 164 119 120 83 184 164 178 140 105 46 276 342 326 304 230 200 215 205 169 190 226 200 227 208 237 252 209 247 260